This is the latest recevied weather packets stored in our database for station/object HB0PJ-13. If no packets are shown the sender has not sent any weather packets the latest 10 day(s).
| Time | Temp. | Humidity | Pressure | Rain* | Wind** | Luminosity | Snow |
|---|---|---|---|---|---|---|---|
| 1777745214 | 27.22° C | 23% | 960.6 hPa | - | - | 9 W/m² | - |
| 1777744854 | 28.33° C | 21% | 960.5 hPa | - | - | 33 W/m² | - |
| 1777744733 | 29.44° C | 21% | 960.5 hPa | - | - | 61 W/m² | - |
| 1777744613 | 30° C | 21% | 960.6 hPa | - | - | 73 W/m² | - |
| 1777744493 | 30° C | 20% | 960.6 hPa | - | - | 148 W/m² | - |
| 1777744374 | 30.56° C | 20% | 960.5 hPa | - | - | 160 W/m² | - |
| 1777744253 | 30.56° C | 21% | 960.6 hPa | - | - | 161 W/m² | - |
| 1777744013 | 31.11° C | 20% | 960.6 hPa | - | - | 178 W/m² | - |
| 1777743894 | 31.67° C | 20% | 960.6 hPa | - | - | 205 W/m² | - |
| 1777743773 | 31.67° C | 20% | 960.7 hPa | - | - | 285 W/m² | - |
| 1777743653 | 31.67° C | 21% | 960.7 hPa | - | - | 282 W/m² | - |
| 1777743533 | 31.11° C | 20% | 960.8 hPa | - | - | 254 W/m² | - |
| 1777743413 | 31.11° C | 20% | 960.8 hPa | - | - | 348 W/m² | - |
| 1777743173 | 31.11° C | 20% | 960.7 hPa | - | - | 380 W/m² | - |
| 1777743054 | 31.11° C | 20% | 960.8 hPa | - | - | 337 W/m² | - |
| 1777742933 | 30.56° C | 21% | 960.7 hPa | - | - | 346 W/m² | - |
| 1777742814 | 30.56° C | 21% | 960.6 hPa | - | - | 154 W/m² | - |
| 1777742693 | 30° C | 20% | 960.7 hPa | - | - | 93 W/m² | - |
| 1777742573 | 29.44° C | 21% | 960.7 hPa | - | - | 84 W/m² | - |
| 1777742454 | 29.44° C | 22% | 960.6 hPa | - | - | 82 W/m² | - |
| 1777742334 | 28.33° C | 22% | 960.6 hPa | - | - | 83 W/m² | - |
| 1777742213 | 28.33° C | 22% | 960.6 hPa | - | - | 86 W/m² | - |
| 1777742093 | 28.33° C | 23% | 960.6 hPa | - | - | 84 W/m² | - |
| 1777741973 | 28.33° C | 22% | 960.7 hPa | - | - | 96 W/m² | - |
| 1777741854 | 28.33° C | 22% | 960.6 hPa | - | - | 103 W/m² | - |
* Rain since midnight (hover to see other rain measurements)
** Current wind speed in m/s (hover to see current wind gust speed)